Time,TemperatureF,DewpointF,PressureIn,WindDirection,WindDirectionDegrees,WindSpeedMPH,WindSpeedGustMPH,Humidity,HourlyPrecipIn,Conditions,Clouds,dailyrainin,SoftwareType,DateUTC
2013-03-03 00:00:00,44.2,43.1,30.25,NNE,22,6.0,6.0,96,0.00,,,0.01,Wunderground v.1.15,2013-03-03 08:00:00,
2013-03-03 00:05:00,44.3,43.2,30.25,North,5,6.0,8.0,96,0.00,,,0.00,Wunderground v.1.15,2013-03-03 08:05:00,
2013-03-03 00:11:00,44.3,43.0,30.25,North,360,7.0,7.0,95,0.00,,,0.00,Wunderground v.1.15,2013-03-03 08:11:00,
2013-03-03 00:17:00,44.3,43.0,30.25,North,5,7.0,7.0,95,0.00,,,0.00,Wunderground v.1.15,2013-03-03 08:17:00,
2013-03-03 00:22:00,44.2,42.9,30.25,NE,46,6.0,9.0,95,0.00,,,0.00,Wunderground v.1.15,2013-03-03 08:22:00,
2013-03-03 00:27:00,44.3,43.0,30.26,NNE,26,6.0,9.0,95,0.00,,,0.00,Wunderground v.1.15,2013-03-03 08:27:00,
2013-03-03 00:33:00,44.3,42.7,30.25,NNE,32,6.0,9.0,94,0.00,,,0.00,Wunderground v.1.15,2013-03-03 08:33:00,
2013-03-03 00:38:00,44.4,42.8,30.26,NE,49,7.0,10.0,94,0.00,,,0.00,Wunderground v.1.15,2013-03-03 08:38:00,
2013-03-03 00:43:00,44.4,42.8,30.25,North,5,7.0,10.0,94,0.00,,,0.00,Wunderground v.1.15,2013-03-03 08:43:00,
2013-03-03 00:49:00,44.4,42.8,30.25,North,9,7.0,12.0,94,0.00,,,0.00,Wunderground v.1.15,2013-03-03 08:49:00,
2013-03-03 00:55:00,44.4,42.5,30.25,North,355,7.0,13.0,93,0.00,,,0.00,Wunderground v.1.15,2013-03-03 08:55:00,
2013-03-03 01:01:00,44.4,42.5,30.25,NNE,24,7.0,16.0,93,0.00,,,0.00,Wunderground v.1.15,2013-03-03 09:01:00,
2013-03-03 01:06:00,44.3,42.1,30.25,ENE,76,8.0,16.0,92,0.00,,,0.00,Wunderground v.1.15,2013-03-03 09:06:00,
2013-03-03 01:11:00,44.4,42.5,30.26,NNE,28,7.0,16.0,93,0.00,,,0.00,Wunderground v.1.15,2013-03-03 09:11:00,
2013-03-03 01:17:00,44.3,42.1,30.26,NNE,32,7.0,16.0,92,0.00,,,0.00,Wunderground v.1.15,2013-03-03 09:17:00,
2013-03-03 01:23:00,44.3,42.1,30.25,North,360,7.0,16.0,92,0.00,,,0.00,Wunderground v.1.15,2013-03-03 09:23:00,
2013-03-03 01:29:00,44.2,42.0,30.26,NE,43,7.0,16.0,92,0.00,,,0.00,Wunderground v.1.15,2013-03-03 09:29:00,
2013-03-03 01:34:00,44.2,42.0,30.26,NE,38,7.0,16.0,92,0.00,,,0.00,Wunderground v.1.15,2013-03-03 09:34:00,
2013-03-03 01:41:00,44.1,41.9,30.26,NE,46,6.0,16.0,92,0.00,,,0.00,Wunderground v.1.15,2013-03-03 09:41:00,
2013-03-03 01:46:00,44.0,41.5,30.26,ENE,64,5.0,16.0,91,0.00,,,0.00,Wunderground v.1.15,2013-03-03 09:46:00,
2013-03-03 01:52:00,43.9,41.4,30.26,North,355,5.0,16.0,91,0.00,,,0.00,Wunderground v.1.15,2013-03-03 09:52:00,
2013-03-03 01:58:00,43.9,41.4,30.26,NE,55,5.0,16.0,91,0.00,,,0.00,Wunderground v.1.15,2013-03-03 09:58:00,
2013-03-03 02:04:00,43.7,41.2,30.27,NE,48,5.0,16.0,91,0.00,,,0.00,Wunderground v.1.15,2013-03-03 10:04:00,
2013-03-03 02:09:00,43.6,41.1,30.26,NE,51,5.0,5.0,91,0.00,,,0.00,Wunderground v.1.15,2013-03-03 10:09:00,
2013-03-03 02:14:00,43.6,41.4,30.26,NNE,18,4.0,16.0,92,0.00,,,0.00,Wunderground v.1.15,2013-03-03 10:14:00,
2013-03-03 02:20:00,43.7,41.2,30.27,NE,55,5.0,16.0,91,0.00,,,0.00,Wunderground v.1.15,2013-03-03 10:20:00,
2013-03-03 02:25:00,43.4,40.9,30.27,NE,40,6.0,16.0,91,0.00,,,0.00,Wunderground v.1.15,2013-03-03 10:25:00,
2013-03-03 02:31:00,43.2,40.8,30.27,NNE,33,6.0,16.0,91,0.00,,,0.00,Wunderground v.1.15,2013-03-03 10:31:00,
2013-03-03 02:37:00,43.2,40.8,30.27,NE,48,6.0,16.0,91,0.00,,,0.00,Wunderground v.1.15,2013-03-03 10:37:00,
2013-03-03 02:43:00,43.1,40.7,30.27,NE,46,6.0,16.0,91,0.00,,,0.00,Wunderground v.1.15,2013-03-03 10:43:00,
2013-03-03 02:48:00,43.0,40.6,30.27,NNE,28,6.0,16.0,91,0.00,,,0.00,Wunderground v.1.15,2013-03-03 10:48:00,
2013-03-03 02:54:00,43.0,40.6,30.27,ENE,61,6.0,16.0,91,0.00,,,0.00,Wunderground v.1.15,2013-03-03 10:54:00,
2013-03-03 02:59:00,43.0,40.6,30.27,NE,46,5.0,5.0,91,0.00,,,0.00,Wunderground v.1.15,2013-03-03 10:59:00,
2013-03-03 03:04:00,42.9,40.5,30.27,NE,49,5.0,16.0,91,0.00,,,0.00,Wunderground v.1.15,2013-03-03 11:04:00,
2013-03-03 03:10:00,42.8,40.4,30.27,NE,42,6.0,16.0,91,0.00,,,0.00,Wunderground v.1.15,2013-03-03 11:10:00,
2013-03-03 03:16:00,42.7,40.3,30.27,NE,36,5.0,16.0,91,0.00,,,0.00,Wunderground v.1.15,2013-03-03 11:16:00,
2013-03-03 03:22:00,42.6,40.2,30.27,NE,45,6.0,16.0,91,0.00,,,0.00,Wunderground v.1.15,2013-03-03 11:22:00,
2013-03-03 03:28:00,42.6,40.2,30.27,NE,49,5.0,16.0,91,0.00,,,0.00,Wunderground v.1.15,2013-03-03 11:28:00,
2013-03-03 03:33:00,42.5,40.1,30.27,NE,36,5.0,16.0,91,0.00,,,0.00,Wunderground v.1.15,2013-03-03 11:33:00,
2013-03-03 03:38:00,42.5,40.1,30.26,ENE,73,5.0,16.0,91,0.00,,,0.00,Wunderground v.1.15,2013-03-03 11:38:00,
2013-03-03 03:45:00,42.5,40.1,30.26,NE,50,5.0,16.0,91,0.00,,,0.00,Wunderground v.1.15,2013-03-03 11:45:00,
2013-03-03 03:51:00,42.4,40.0,30.26,ENE,59,5.0,7.0,91,0.00,,,0.00,Wunderground v.1.15,2013-03-03 11:51:00,
2013-03-03 03:56:00,42.3,39.9,30.26,NE,53,5.0,16.0,91,0.00,,,0.00,Wunderground v.1.15,2013-03-03 11:56:00,
2013-03-03 04:02:00,42.3,39.9,30.26,ENE,59,5.0,16.0,91,0.00,,,0.00,Wunderground v.1.15,2013-03-03 12:02:00,
2013-03-03 04:08:00,42.2,39.5,30.26,NNE,26,5.0,16.0,90,0.00,,,0.00,Wunderground v.1.15,2013-03-03 12:08:00,
2013-03-03 04:13:00,42.2,39.5,30.26,ENE,70,5.0,16.0,90,0.00,,,0.00,Wunderground v.1.15,2013-03-03 12:13:00,
2013-03-03 04:19:00,42.1,39.4,30.26,NE,39,5.0,16.0,90,0.00,,,0.00,Wunderground v.1.15,2013-03-03 12:19:00,
2013-03-03 04:24:00,41.9,39.2,30.26,NE,46,5.0,16.0,90,0.00,,,0.00,Wunderground v.1.15,2013-03-03 12:24:00,
2013-03-03 04:30:00,41.8,39.1,30.26,NE,49,5.0,5.0,90,0.00,,,0.00,Wunderground v.1.15,2013-03-03 12:30:00,
2013-03-03 04:35:00,41.8,39.1,30.26,NE,49,5.0,16.0,90,0.00,,,0.00,Wunderground v.1.15,2013-03-03 12:35:00,
2013-03-03 04:40:00,41.6,38.9,30.26,NE,52,5.0,16.0,90,0.00,,,0.00,Wunderground v.1.15,2013-03-03 12:40:00,
2013-03-03 04:45:00,41.4,38.4,30.26,ENE,59,4.0,16.0,89,0.00,,,0.00,Wunderground v.1.15,2013-03-03 12:45:00,
2013-03-03 04:51:00,41.2,38.5,30.25,NE,52,5.0,16.0,90,0.00,,,0.00,Wunderground v.1.15,2013-03-03 12:51:00,
2013-03-03 04:56:00,41.1,38.4,30.25,NE,54,4.0,16.0,90,0.00,,,0.00,Wunderground v.1.15,2013-03-03 12:56:00,
2013-03-03 05:02:00,40.9,38.2,30.25,NE,54,3.0,16.0,90,0.00,,,0.00,Wunderground v.1.15,2013-03-03 13:02:00,
2013-03-03 05:08:00,40.6,37.9,30.26,ENE,57,3.0,16.0,90,0.00,,,0.00,Wunderground v.1.15,2013-03-03 13:08:00,
2013-03-03 05:14:00,40.5,38.1,30.26,NE,50,4.0,16.0,91,0.00,,,0.00,Wunderground v.1.15,2013-03-03 13:14:00,
2013-03-03 05:19:00,40.5,38.1,30.26,NE,49,3.0,16.0,91,0.00,,,0.00,Wunderground v.1.15,2013-03-03 13:19:00,
2013-03-03 05:25:00,40.6,38.2,30.26,NE,35,3.0,16.0,91,0.00,,,0.00,Wunderground v.1.15,2013-03-03 13:25:00,
2013-03-03 05:30:00,40.6,38.2,30.26,NNE,31,4.0,4.0,91,0.00,,,0.00,Wunderground v.1.15,2013-03-03 13:30:00,
2013-03-03 05:36:00,40.6,38.2,30.26,NE,56,4.0,16.0,91,0.00,,,0.00,Wunderground v.1.15,2013-03-03 13:36:00,
2013-03-03 05:41:00,40.2,37.8,30.26,NE,44,4.0,16.0,91,0.00,,,0.00,Wunderground v.1.15,2013-03-03 13:41:00,
2013-03-03 05:47:00,39.8,37.4,30.26,NE,50,4.0,16.0,91,0.00,,,0.00,Wunderground v.1.15,2013-03-03 13:47:00,
2013-03-03 05:54:00,39.2,36.8,30.26,NE,43,3.0,16.0,91,0.00,,,0.00,Wunderground v.1.15,2013-03-03 13:54:00,
2013-03-03 06:00:00,39.0,36.6,30.25,NE,44,3.0,16.0,91,0.00,,,0.00,Wunderground v.1.15,2013-03-03 14:00:00,
2013-03-03 06:05:00,38.9,36.8,30.25,NE,53,4.0,16.0,92,0.00,,,0.00,Wunderground v.1.15,2013-03-03 14:05:00,
2013-03-03 06:10:00,38.8,36.7,30.25,NE,55,4.0,16.0,92,0.00,,,0.00,Wunderground v.1.15,2013-03-03 14:10:00,
2013-03-03 06:16:00,38.7,36.6,30.25,ENE,63,4.0,16.0,92,0.00,,,0.00,Wunderground v.1.15,2013-03-03 14:16:00,
2013-03-03 06:22:00,38.5,36.4,30.25,ENE,63,4.0,16.0,92,0.00,,,0.00,Wunderground v.1.15,2013-03-03 14:22:00,
2013-03-03 06:28:00,38.4,36.3,30.25,NE,52,4.0,16.0,92,0.00,,,0.00,Wunderground v.1.15,2013-03-03 14:28:00,
2013-03-03 06:33:00,38.3,36.2,30.25,ENE,71,4.0,16.0,92,0.00,,,0.00,Wunderground v.1.15,2013-03-03 14:33:00,
2013-03-03 06:38:00,38.2,36.1,30.25,NE,55,5.0,16.0,92,0.00,,,0.00,Wunderground v.1.15,2013-03-03 14:38:00,
2013-03-03 06:43:00,38.1,36.0,30.25,NE,44,5.0,16.0,92,0.00,,,0.00,Wunderground v.1.15,2013-03-03 14:43:00,
2013-03-03 06:48:00,38.1,36.0,30.25,NE,52,5.0,16.0,92,0.00,,,0.00,Wunderground v.1.15,2013-03-03 14:48:00,
2013-03-03 06:54:00,38.2,36.1,30.25,ENE,61,6.0,16.0,92,0.00,,,0.00,Wunderground v.1.15,2013-03-03 14:54:00,
2013-03-03 06:59:00,38.2,36.1,30.25,ENE,59,6.0,6.0,92,0.00,,,0.00,Wunderground v.1.15,2013-03-03 14:59:00,
2013-03-03 07:04:00,38.3,36.2,30.25,ENE,71,7.0,16.0,92,0.00,,,0.00,Wunderground v.1.15,2013-03-03 15:04:00,
2013-03-03 07:10:00,38.3,36.2,30.26,ENE,65,7.0,16.0,92,0.00,,,0.00,Wunderground v.1.15,2013-03-03 15:10:00,
2013-03-03 07:16:00,38.2,36.1,30.26,ENE,58,6.0,16.0,92,0.00,,,0.00,Wunderground v.1.15,2013-03-03 15:16:00,
2013-03-03 07:21:00,38.0,36.2,30.26,NE,40,5.0,16.0,93,0.00,,,0.00,Wunderground v.1.15,2013-03-03 15:21:00,
2013-03-03 07:26:00,38.1,36.3,30.26,NE,42,5.0,16.0,93,0.00,,,0.00,Wunderground v.1.15,2013-03-03 15:26:00,
2013-03-03 07:31:00,38.5,36.4,30.26,NE,55,6.0,16.0,92,0.00,,,0.00,Wunderground v.1.15,2013-03-03 15:31:00,
2013-03-03 07:37:00,38.8,36.7,30.27,NE,51,6.0,16.0,92,0.00,,,0.00,Wunderground v.1.15,2013-03-03 15:37:00,
2013-03-03 07:42:00,39.0,36.9,30.27,ENE,68,6.0,16.0,92,0.00,,,0.00,Wunderground v.1.15,2013-03-03 15:42:00,
2013-03-03 07:49:00,39.4,37.0,30.27,ENE,65,7.0,16.0,91,0.00,,,0.00,Wunderground v.1.15,2013-03-03 15:49:00,
2013-03-03 07:55:00,39.4,37.0,30.27,ENE,63,7.0,16.0,91,0.00,,,0.00,Wunderground v.1.15,2013-03-03 15:55:00,
2013-03-03 08:00:00,39.5,37.1,30.27,ENE,78,8.0,16.0,91,0.00,,,0.00,Wunderground v.1.15,2013-03-03 16:00:00,
2013-03-03 08:06:00,39.7,37.3,30.27,ENE,78,9.0,16.0,91,0.00,,,0.00,Wunderground v.1.15,2013-03-03 16:06:00,
2013-03-03 08:11:00,40.0,37.6,30.27,ENE,61,7.0,16.0,91,0.00,,,0.00,Wunderground v.1.15,2013-03-03 16:11:00,
2013-03-03 08:16:00,40.3,37.9,30.27,ENE,59,6.0,16.0,91,0.00,,,0.00,Wunderground v.1.15,2013-03-03 16:16:00,
2013-03-03 08:21:00,40.6,37.9,30.27,NE,42,6.0,16.0,90,0.00,,,0.00,Wunderground v.1.15,2013-03-03 16:21:00,
2013-03-03 08:27:00,40.8,37.8,30.27,NE,49,7.0,16.0,89,0.00,,,0.00,Wunderground v.1.15,2013-03-03 16:27:00,
2013-03-03 08:32:00,41.0,37.7,30.27,ENE,67,8.0,13.0,88,0.00,,,0.00,Wunderground v.1.15,2013-03-03 16:32:00,
2013-03-03 08:39:00,41.4,37.8,30.27,East,91,9.0,16.0,87,0.00,,,0.00,Wunderground v.1.15,2013-03-03 16:39:00,
2013-03-03 08:44:00,41.7,37.8,30.27,ENE,61,10.0,16.0,86,0.00,,,0.00,Wunderground v.1.15,2013-03-03 16:44:00,
2013-03-03 08:49:00,42.0,37.8,30.27,NE,37,10.0,16.0,85,0.00,,,0.00,Wunderground v.1.15,2013-03-03 16:49:00,
2013-03-03 08:55:00,42.2,37.7,30.27,ENE,63,8.0,16.0,84,0.00,,,0.00,Wunderground v.1.15,2013-03-03 16:55:00,
2013-03-03 09:00:00,42.4,37.6,30.27,ENE,74,10.0,16.0,83,0.00,,,0.00,Wunderground v.1.15,2013-03-03 17:00:00,
2013-03-03 09:05:00,42.7,37.6,30.27,NE,52,10.0,16.0,82,0.00,,,0.00,Wunderground v.1.15,2013-03-03 17:05:00,
2013-03-03 09:11:00,43.0,37.6,30.27,ENE,70,9.0,16.0,81,0.00,,,0.00,Wunderground v.1.15,2013-03-03 17:11:00,
2013-03-03 09:16:00,43.3,37.5,30.27,ENE,62,8.0,16.0,80,0.00,,,0.00,Wunderground v.1.15,2013-03-03 17:16:00,
2013-03-03 09:22:00,43.3,37.2,30.27,NE,52,9.0,16.0,79,0.00,,,0.00,Wunderground v.1.15,2013-03-03 17:22:00,
2013-03-03 09:28:00,43.5,37.4,30.26,ENE,62,8.0,16.0,79,0.00,,,0.00,Wunderground v.1.15,2013-03-03 17:28:00,
2013-03-03 09:34:00,43.6,37.5,30.26,ENE,67,9.0,16.0,79,0.00,,,0.00,Wunderground v.1.15,2013-03-03 17:34:00,
2013-03-03 09:40:00,44.0,37.9,30.26,ENE,59,8.0,16.0,79,0.00,,,0.00,Wunderground v.1.15,2013-03-03 17:40:00,
2013-03-03 09:45:00,44.2,37.8,30.26,NE,49,7.0,16.0,78,0.00,,,0.00,Wunderground v.1.15,2013-03-03 17:45:00,
2013-03-03 09:51:00,44.4,37.6,30.26,ENE,63,6.0,7.0,77,0.00,,,0.00,Wunderground v.1.15,2013-03-03 17:51:00,
2013-03-03 09:57:00,44.5,37.4,30.26,ENE,71,7.0,16.0,76,0.00,,,0.00,Wunderground v.1.15,2013-03-03 17:57:00,
2013-03-03 10:03:00,44.9,38.1,30.26,NE,48,8.0,16.0,77,0.00,,,0.00,Wunderground v.1.15,2013-03-03 18:03:00,
2013-03-03 10:09:00,44.8,38.0,30.25,NE,55,9.0,16.0,77,0.00,,,0.00,Wunderground v.1.15,2013-03-03 18:09:00,
2013-03-03 10:15:00,44.5,37.7,30.25,ENE,65,11.0,16.0,77,0.00,,,0.00,Wunderground v.1.15,2013-03-03 18:15:00,
2013-03-03 10:20:00,45.1,38.3,30.25,ENE,69,10.0,10.0,77,0.00,,,0.00,Wunderground v.1.15,2013-03-03 18:20:00,
2013-03-03 10:25:00,45.3,38.2,30.25,ENE,64,7.0,16.0,76,0.00,,,0.00,Wunderground v.1.15,2013-03-03 18:25:00,
2013-03-03 10:30:00,45.0,36.2,30.25,ENE,71,9.0,16.0,71,0.00,,,0.00,Wunderground v.1.15,2013-03-03 18:30:00,
2013-03-03 10:36:00,45.3,36.4,30.25,NE,39,12.0,16.0,71,0.00,,,0.00,Wunderground v.1.15,2013-03-03 18:36:00,
2013-03-03 10:41:00,45.6,36.7,30.25,NE,43,11.0,16.0,71,0.00,,,0.00,Wunderground v.1.15,2013-03-03 18:41:00,
2013-03-03 10:48:00,46.0,36.8,30.25,NE,42,7.0,16.0,70,0.00,,,0.00,Wunderground v.1.15,2013-03-03 18:48:00,
2013-03-03 10:53:00,46.2,37.0,30.25,NNE,13,7.0,16.0,70,0.00,,,0.00,Wunderground v.1.15,2013-03-03 18:53:00,
2013-03-03 10:58:00,46.3,37.8,30.25,NE,39,8.0,16.0,72,0.00,,,0.00,Wunderground v.1.15,2013-03-03 18:58:00,
2013-03-03 11:04:00,46.4,38.9,30.25,NNE,24,7.0,16.0,75,0.00,,,0.00,Wunderground v.1.15,2013-03-03 19:04:00,
2013-03-03 11:10:00,45.4,38.9,30.25,North,360,9.0,16.0,78,0.00,,,0.00,Wunderground v.1.15,2013-03-03 19:10:00,
2013-03-03 11:16:00,45.3,39.5,30.24,North,355,10.0,16.0,80,0.00,,,0.00,Wunderground v.1.15,2013-03-03 19:16:00,
2013-03-03 11:22:00,45.0,39.2,30.24,North,355,12.0,14.0,80,0.00,,,0.00,Wunderground v.1.15,2013-03-03 19:22:00,
2013-03-03 11:27:00,44.8,39.3,30.23,North,355,14.0,19.0,81,0.00,,,0.00,Wunderground v.1.15,2013-03-03 19:27:00,
2013-03-03 11:33:00,44.6,39.1,30.23,North,360,16.0,20.0,81,0.00,,,0.00,Wunderground v.1.15,2013-03-03 19:33:00,
2013-03-03 11:38:00,44.5,39.3,30.23,NNE,17,16.0,20.0,82,0.00,,,0.00,Wunderground v.1.15,2013-03-03 19:38:00,
2013-03-03 11:44:00,44.6,39.4,30.23,North,355,16.0,21.0,82,0.00,,,0.00,Wunderground v.1.15,2013-03-03 19:44:00,
2013-03-03 11:49:00,44.6,39.4,30.23,North,355,16.0,21.0,82,0.00,,,0.00,Wunderground v.1.15,2013-03-03 19:49:00,
2013-03-03 11:54:00,44.6,39.4,30.23,North,355,16.0,20.0,82,0.00,,,0.00,Wunderground v.1.15,2013-03-03 19:54:00,
2013-03-03 12:00:00,44.4,38.9,30.23,North,360,18.0,18.0,81,0.00,,,0.00,Wunderground v.1.15,2013-03-03 20:00:00,
2013-03-03 12:06:00,44.7,39.5,30.22,North,355,17.0,22.0,82,0.00,,,0.00,Wunderground v.1.15,2013-03-03 20:06:00,
2013-03-03 12:11:00,44.7,39.5,30.22,North,5,18.0,24.0,82,0.00,,,0.00,Wunderground v.1.15,2013-03-03 20:11:00,
2013-03-03 12:16:00,44.7,39.2,30.22,North,355,18.0,24.0,81,0.00,,,0.00,Wunderground v.1.15,2013-03-03 20:16:00,
2013-03-03 12:23:00,44.8,39.3,30.22,North,360,18.0,18.0,81,0.00,,,0.00,Wunderground v.1.15,2013-03-03 20:23:00,
2013-03-03 12:29:00,44.8,39.0,30.21,North,355,19.0,20.0,80,0.00,,,0.00,Wunderground v.1.15,2013-03-03 20:29:00,
2013-03-03 12:35:00,44.8,39.0,30.21,North,355,19.0,21.0,80,0.00,,,0.00,Wunderground v.1.15,2013-03-03 20:35:00,
2013-03-03 12:41:00,44.9,38.8,30.21,North,355,19.0,21.0,79,0.00,,,0.00,Wunderground v.1.15,2013-03-03 20:41:00,
2013-03-03 12:46:00,44.8,38.7,30.21,North,5,19.0,21.0,79,0.00,,,0.00,Wunderground v.1.15,2013-03-03 20:46:00,
2013-03-03 12:51:00,45.2,39.4,30.20,North,5,19.0,21.0,80,0.00,,,0.00,Wunderground v.1.15,2013-03-03 20:51:00,
2013-03-03 12:56:00,45.0,38.9,30.20,North,355,19.0,24.0,79,0.00,,,0.00,Wunderground v.1.15,2013-03-03 20:56:00,
2013-03-03 13:03:00,45.2,39.4,30.20,NNW,346,19.0,24.0,80,0.00,,,0.00,Wunderground v.1.15,2013-03-03 21:03:00,
2013-03-03 13:09:00,45.3,39.2,30.20,North,349,19.0,24.0,79,0.00,,,0.00,Wunderground v.1.15,2013-03-03 21:09:00,
2013-03-03 13:15:00,45.1,38.6,30.19,North,11,19.0,22.0,78,0.00,,,0.00,Wunderground v.1.15,2013-03-03 21:15:00,
2013-03-03 13:21:00,45.1,38.6,30.19,North,360,19.0,20.0,78,0.00,,,0.00,Wunderground v.1.15,2013-03-03 21:21:00,
2013-03-03 13:27:00,45.0,38.2,30.19,North,5,19.0,22.0,77,0.00,,,0.00,Wunderground v.1.15,2013-03-03 21:27:00,
2013-03-03 13:33:00,45.0,38.2,30.20,North,351,20.0,21.0,77,0.00,,,0.00,Wunderground v.1.15,2013-03-03 21:33:00,
2013-03-03 13:38:00,45.2,38.7,30.19,North,355,20.0,27.0,78,0.00,,,0.00,Wunderground v.1.15,2013-03-03 21:38:00,
2013-03-03 13:44:00,45.3,39.2,30.19,North,360,20.0,23.0,79,0.00,,,0.00,Wunderground v.1.15,2013-03-03 21:44:00,
2013-03-03 13:50:00,45.4,38.9,30.19,North,360,20.0,23.0,78,0.00,,,0.00,Wunderground v.1.15,2013-03-03 21:50:00,
2013-03-03 13:55:00,45.6,39.5,30.19,North,355,20.0,25.0,79,0.00,,,0.00,Wunderground v.1.15,2013-03-03 21:55:00,
2013-03-03 14:00:00,45.5,39.0,30.19,North,5,20.0,26.0,78,0.00,,,0.00,Wunderground v.1.15,2013-03-03 22:00:00,
2013-03-03 14:05:00,45.5,38.7,30.19,North,5,21.0,26.0,77,0.00,,,0.00,Wunderground v.1.15,2013-03-03 22:05:00,
2013-03-03 14:12:00,45.6,38.8,30.19,NNE,17,20.0,21.0,77,0.00,,,0.00,Wunderground v.1.15,2013-03-03 22:12:00,
2013-03-03 14:17:00,45.6,39.1,30.19,North,355,20.0,24.0,78,0.00,,,0.00,Wunderground v.1.15,2013-03-03 22:17:00,
2013-03-03 14:23:00,45.7,39.2,30.18,North,355,21.0,26.0,78,0.00,,,0.00,Wunderground v.1.15,2013-03-03 22:23:00,
2013-03-03 14:28:00,45.8,39.7,30.19,North,5,21.0,26.0,79,0.00,,,0.00,Wunderground v.1.15,2013-03-03 22:28:00,
2013-03-03 14:35:00,45.7,39.2,30.18,North,349,21.0,25.0,78,0.00,,,0.00,Wunderground v.1.15,2013-03-03 22:35:00,
2013-03-03 14:41:00,45.7,39.6,30.18,NNE,14,22.0,23.0,79,0.00,,,0.00,Wunderground v.1.15,2013-03-03 22:41:00,
2013-03-03 14:46:00,45.7,39.2,30.18,North,355,21.0,26.0,78,0.00,,,0.00,Wunderground v.1.15,2013-03-03 22:46:00,
2013-03-03 14:52:00,45.8,39.7,30.19,North,360,21.0,22.0,79,0.00,,,0.00,Wunderground v.1.15,2013-03-03 22:52:00,
2013-03-03 14:57:00,45.8,39.7,30.18,North,360,21.0,27.0,79,0.00,,,0.00,Wunderground v.1.15,2013-03-03 22:57:00,
2013-03-03 15:03:00,45.8,39.3,30.18,North,360,21.0,22.0,78,0.00,,,0.00,Wunderground v.1.15,2013-03-03 23:03:00,
2013-03-03 15:09:00,45.9,39.8,30.18,North,5,20.0,22.0,79,0.00,,,0.00,Wunderground v.1.15,2013-03-03 23:09:00,
2013-03-03 15:15:00,45.7,39.2,30.18,North,5,21.0,26.0,78,0.00,,,0.00,Wunderground v.1.15,2013-03-03 23:15:00,
2013-03-03 15:21:00,45.8,39.0,30.18,North,5,22.0,26.0,77,0.00,,,0.00,Wunderground v.1.15,2013-03-03 23:21:00,
2013-03-03 15:27:00,46.0,39.5,30.18,North,360,22.0,26.0,78,0.00,,,0.00,Wunderground v.1.15,2013-03-03 23:27:00,
2013-03-03 15:32:00,45.9,39.1,30.18,North,355,22.0,25.0,77,0.00,,,0.00,Wunderground v.1.15,2013-03-03 23:32:00,
2013-03-03 15:37:00,46.0,39.5,30.18,North,360,21.0,25.0,78,0.00,,,0.00,Wunderground v.1.15,2013-03-03 23:37:00,
2013-03-03 15:42:00,45.9,39.8,30.18,NNE,23,21.0,23.0,79,0.00,,,0.00,Wunderground v.1.15,2013-03-03 23:42:00,
2013-03-03 15:48:00,45.6,39.8,30.18,NNE,17,22.0,29.0,80,0.00,,,0.00,Wunderground v.1.15,2013-03-03 23:48:00,
2013-03-03 15:53:00,45.7,39.9,30.18,North,5,21.0,23.0,80,0.00,,,0.00,Wunderground v.1.15,2013-03-03 23:53:00,
2013-03-03 15:59:00,45.6,40.1,30.17,North,355,20.0,21.0,81,0.00,,,0.00,Wunderground v.1.15,2013-03-03 23:59:00,
2013-03-03 16:06:00,45.6,40.1,30.17,North,5,21.0,28.0,81,0.00,,,0.00,Wunderground v.1.15,2013-03-04 00:06:00,
2013-03-03 16:12:00,45.6,40.1,30.17,North,355,21.0,27.0,81,0.00,,,0.00,Wunderground v.1.15,2013-03-04 00:12:00,
2013-03-03 16:17:00,45.7,40.2,30.17,North,349,20.0,27.0,81,0.00,,,0.00,Wunderground v.1.15,2013-03-04 00:17:00,
2013-03-03 16:23:00,45.6,40.1,30.17,North,351,21.0,29.0,81,0.00,,,0.00,Wunderground v.1.15,2013-03-04 00:23:00,
2013-03-03 16:29:00,45.6,40.1,30.17,North,360,21.0,29.0,81,0.00,,,0.00,Wunderground v.1.15,2013-03-04 00:29:00,
2013-03-03 16:34:00,45.6,40.4,30.17,North,350,20.0,24.0,82,0.00,,,0.00,Wunderground v.1.15,2013-03-04 00:34:00,
2013-03-03 16:40:00,45.7,40.2,30.17,North,355,20.0,20.0,81,0.00,,,0.00,Wunderground v.1.15,2013-03-04 00:40:00,
2013-03-03 16:45:00,45.8,40.3,30.17,NNW,348,19.0,21.0,81,0.00,,,0.00,Wunderground v.1.15,2013-03-04 00:45:00,
2013-03-03 16:51:00,45.6,40.1,30.17,North,351,19.0,26.0,81,0.00,,,0.00,Wunderground v.1.15,2013-03-04 00:51:00,
2013-03-03 16:57:00,45.7,40.5,30.17,North,9,19.0,26.0,82,0.00,,,0.00,Wunderground v.1.15,2013-03-04 00:57:00,
2013-03-03 17:03:00,45.6,40.4,30.16,NNE,32,20.0,23.0,82,0.00,,,0.00,Wunderground v.1.15,2013-03-04 01:03:00,
2013-03-03 17:08:00,45.5,40.3,30.16,North,350,20.0,23.0,82,0.00,,,0.00,Wunderground v.1.15,2013-03-04 01:08:00,
2013-03-03 17:14:00,45.4,40.2,30.16,NNW,346,19.0,21.0,82,0.00,,,0.00,Wunderground v.1.15,2013-03-04 01:14:00,
2013-03-03 17:19:00,45.4,40.2,30.16,NE,34,16.0,25.0,82,0.00,,,0.00,Wunderground v.1.15,2013-03-04 01:19:00,
2013-03-03 17:25:00,45.3,40.1,30.16,NNW,337,15.0,17.0,82,0.00,,,0.00,Wunderground v.1.15,2013-03-04 01:25:00,
2013-03-03 17:30:00,45.3,40.4,30.17,North,360,15.0,15.0,83,0.00,,,0.00,Wunderground v.1.15,2013-03-04 01:30:00,
2013-03-03 17:36:00,45.1,40.2,30.16,NNW,346,15.0,19.0,83,0.00,,,0.00,Wunderground v.1.15,2013-03-04 01:36:00,
2013-03-03 17:42:00,45.0,40.1,30.16,NNE,12,16.0,17.0,83,0.00,,,0.00,Wunderground v.1.15,2013-03-04 01:42:00,
2013-03-03 17:48:00,44.9,40.0,30.17,NNW,336,15.0,20.0,83,0.00,,,0.00,Wunderground v.1.15,2013-03-04 01:48:00,
2013-03-03 17:53:00,44.8,40.0,30.17,NNE,24,14.0,17.0,83,0.00,,,0.00,Wunderground v.1.15,2013-03-04 01:53:00,
2013-03-03 17:58:00,44.7,40.2,30.17,North,5,13.0,17.0,84,0.00,,,0.00,Wunderground v.1.15,2013-03-04 01:58:00,
2013-03-03 18:04:00,44.6,40.1,30.17,NNE,17,12.0,16.0,84,0.00,,,0.00,Wunderground v.1.15,2013-03-04 02:04:00,
2013-03-03 18:10:00,44.4,40.2,30.16,NNE,32,10.0,10.0,85,0.00,,,0.00,Wunderground v.1.15,2013-03-04 02:10:00,
2013-03-03 18:16:00,44.3,40.1,30.17,North,9,8.0,16.0,85,0.00,,,0.00,Wunderground v.1.15,2013-03-04 02:16:00,
2013-03-03 18:22:00,44.3,40.1,30.17,NE,46,7.0,16.0,85,0.00,,,0.00,Wunderground v.1.15,2013-03-04 02:22:00,
2013-03-03 18:28:00,44.2,40.0,30.17,NNW,343,7.0,16.0,85,0.00,,,0.00,Wunderground v.1.15,2013-03-04 02:28:00,
2013-03-03 18:33:00,44.2,40.0,30.17,NE,41,7.0,16.0,85,0.00,,,0.00,Wunderground v.1.15,2013-03-04 02:33:00,
2013-03-03 18:38:00,44.2,40.3,30.17,North,360,7.0,16.0,86,0.00,,,0.00,Wunderground v.1.15,2013-03-04 02:38:00,
2013-03-03 18:43:00,44.2,40.3,30.17,North,355,7.0,16.0,86,0.00,,,0.00,Wunderground v.1.15,2013-03-04 02:43:00,
2013-03-03 18:49:00,44.2,40.3,30.18,North,5,7.0,16.0,86,0.00,,,0.00,Wunderground v.1.15,2013-03-04 02:49:00,
2013-03-03 18:55:00,44.1,40.2,30.18,NE,37,8.0,16.0,86,0.00,,,0.00,Wunderground v.1.15,2013-03-04 02:55:00,
2013-03-03 19:00:00,44.0,40.1,30.18,North,5,7.0,7.0,86,0.00,,,0.00,Wunderground v.1.15,2013-03-04 03:00:00,
2013-03-03 19:06:00,43.9,40.0,30.18,NE,56,7.0,16.0,86,0.00,,,0.00,Wunderground v.1.15,2013-03-04 03:06:00,
2013-03-03 19:11:00,43.6,40.0,30.18,NE,51,6.0,16.0,87,0.00,,,0.00,Wunderground v.1.15,2013-03-04 03:11:00,
2013-03-03 19:16:00,43.5,39.9,30.18,NE,34,7.0,16.0,87,0.00,,,0.00,Wunderground v.1.15,2013-03-04 03:16:00,
2013-03-03 19:21:00,43.4,39.8,30.18,NE,55,7.0,16.0,87,0.00,,,0.00,Wunderground v.1.15,2013-03-04 03:21:00,
2013-03-03 19:27:00,42.8,39.2,30.18,ENE,69,6.0,16.0,87,0.00,,,0.00,Wunderground v.1.15,2013-03-04 03:27:00,
2013-03-03 19:32:00,42.6,39.0,30.18,NE,38,7.0,16.0,87,0.00,,,0.00,Wunderground v.1.15,2013-03-04 03:32:00,
2013-03-03 19:38:00,42.4,39.1,30.18,East,80,7.0,16.0,88,0.00,,,0.00,Wunderground v.1.15,2013-03-04 03:38:00,
2013-03-03 19:43:00,42.3,39.0,30.18,NE,49,7.0,16.0,88,0.00,,,0.00,Wunderground v.1.15,2013-03-04 03:43:00,
2013-03-03 19:49:00,42.2,38.9,30.18,NE,56,6.0,16.0,88,0.00,,,0.00,Wunderground v.1.15,2013-03-04 03:49:00,
2013-03-03 19:54:00,42.0,38.7,30.18,NE,44,6.0,16.0,88,0.00,,,0.00,Wunderground v.1.15,2013-03-04 03:54:00,
2013-03-03 20:00:00,41.9,38.6,30.18,NE,44,5.0,5.0,88,0.00,,,0.00,Wunderground v.1.15,2013-03-04 04:00:00,
2013-03-03 20:05:00,41.7,38.7,30.18,NE,42,5.0,16.0,89,0.00,,,0.00,Wunderground v.1.15,2013-03-04 04:05:00,
2013-03-03 20:11:00,41.7,38.7,30.18,NNE,22,5.0,7.0,89,0.00,,,0.00,Wunderground v.1.15,2013-03-04 04:11:00,
2013-03-03 20:17:00,41.7,38.7,30.18,NE,38,5.0,16.0,89,0.00,,,0.00,Wunderground v.1.15,2013-03-04 04:17:00,
2013-03-03 20:23:00,41.6,38.3,30.17,NE,55,5.0,16.0,88,0.00,,,0.00,Wunderground v.1.15,2013-03-04 04:23:00,
2013-03-03 20:29:00,41.4,38.1,30.17,ENE,58,4.0,16.0,88,0.00,,,0.00,Wunderground v.1.15,2013-03-04 04:29:00,
2013-03-03 20:35:00,41.2,37.9,30.17,NE,49,4.0,16.0,88,0.00,,,0.00,Wunderground v.1.15,2013-03-04 04:35:00,
2013-03-03 20:41:00,41.0,37.4,30.17,NE,51,4.0,16.0,87,0.00,,,0.00,Wunderground v.1.15,2013-03-04 04:41:00,
2013-03-03 20:46:00,40.8,37.2,30.17,ENE,63,5.0,16.0,87,0.00,,,0.00,Wunderground v.1.15,2013-03-04 04:46:00,
2013-03-03 20:52:00,40.7,37.1,30.17,ENE,63,5.0,16.0,87,0.00,,,0.00,Wunderground v.1.15,2013-03-04 04:52:00,
2013-03-03 20:57:00,40.5,36.9,30.17,NE,46,4.0,16.0,87,0.00,,,0.00,Wunderground v.1.15,2013-03-04 04:57:00,
2013-03-03 21:01:00,40.3,36.4,30.17,NE,52,4.0,5.0,86,0.00,,,0.00,Wunderground v.1.15,2013-03-04 05:01:00,
2013-03-03 21:03:00,40.3,36.4,30.17,ENE,62,3.0,16.0,86,0.00,,,0.00,Wunderground v.1.15,2013-03-04 05:03:00,
2013-03-03 21:05:00,40.3,36.4,30.17,ENE,61,4.0,16.0,86,0.00,,,0.00,Wunderground v.1.15,2013-03-04 05:05:00,
2013-03-03 21:10:00,40.5,36.6,30.17,ENE,58,4.0,16.0,86,0.00,,,0.00,Wunderground v.1.15,2013-03-04 05:10:00,
2013-03-03 21:17:00,40.4,36.5,30.17,NE,55,4.0,16.0,86,0.00,,,0.00,Wunderground v.1.15,2013-03-04 05:17:00,
2013-03-03 21:23:00,40.0,35.9,30.17,NE,55,3.0,16.0,85,0.00,,,0.00,Wunderground v.1.15,2013-03-04 05:23:00,
2013-03-03 21:28:00,39.7,35.9,30.17,NE,55,3.0,16.0,86,0.00,,,0.00,Wunderground v.1.15,2013-03-04 05:28:00,
2013-03-03 21:33:00,39.5,35.7,30.17,NE,49,3.0,16.0,86,0.00,,,0.00,Wunderground v.1.15,2013-03-04 05:33:00,
2013-03-03 21:39:00,39.3,35.5,30.17,NE,55,5.0,16.0,86,0.00,,,0.00,Wunderground v.1.15,2013-03-04 05:39:00,
2013-03-03 21:44:00,39.3,35.5,30.16,NE,47,5.0,16.0,86,0.00,,,0.00,Wunderground v.1.15,2013-03-04 05:44:00,
2013-03-03 21:50:00,39.4,35.6,30.16,NE,56,4.0,4.0,86,0.00,,,0.00,Wunderground v.1.15,2013-03-04 05:50:00,
2013-03-03 21:55:00,39.4,35.6,30.16,NE,53,4.0,16.0,86,0.00,,,0.00,Wunderground v.1.15,2013-03-04 05:55:00,
2013-03-03 22:01:00,39.6,35.8,30.16,NE,45,5.0,16.0,86,0.00,,,0.00,Wunderground v.1.15,2013-03-04 06:01:00,
2013-03-03 22:07:00,39.7,35.6,30.16,ENE,58,5.0,16.0,85,0.00,,,0.00,Wunderground v.1.15,2013-03-04 06:07:00,
2013-03-03 22:13:00,39.5,35.1,30.16,ENE,72,6.0,16.0,84,0.00,,,0.00,Wunderground v.1.15,2013-03-04 06:13:00,
2013-03-03 22:20:00,39.4,35.0,30.16,ENE,67,6.0,6.0,84,0.00,,,0.00,Wunderground v.1.15,2013-03-04 06:20:00,
2013-03-03 22:25:00,39.3,34.6,30.16,NE,46,5.0,16.0,83,0.00,,,0.00,Wunderground v.1.15,2013-03-04 06:25:00,
2013-03-03 22:32:00,39.2,34.5,30.16,ENE,64,4.0,16.0,83,0.00,,,0.00,Wunderground v.1.15,2013-03-04 06:32:00,
2013-03-03 22:38:00,39.2,34.5,30.15,NE,45,4.0,16.0,83,0.00,,,0.00,Wunderground v.1.15,2013-03-04 06:38:00,
2013-03-03 22:44:00,39.1,34.1,30.15,NE,49,4.0,16.0,82,0.00,,,0.00,Wunderground v.1.15,2013-03-04 06:44:00,
2013-03-03 22:49:00,39.1,34.1,30.15,NE,36,4.0,4.0,82,0.00,,,0.00,Wunderground v.1.15,2013-03-04 06:49:00,
2013-03-03 22:54:00,39.0,34.0,30.15,NE,55,4.0,16.0,82,0.00,,,0.00,Wunderground v.1.15,2013-03-04 06:54:00,
2013-03-03 23:01:00,39.0,33.7,30.15,ENE,61,4.0,16.0,81,0.00,,,0.00,Wunderground v.1.15,2013-03-04 07:01:00,
2013-03-03 23:07:00,38.9,33.6,30.15,ENE,64,4.0,16.0,81,0.00,,,0.00,Wunderground v.1.15,2013-03-04 07:07:00,
2013-03-03 23:12:00,38.9,33.6,30.15,ENE,64,5.0,16.0,81,0.00,,,0.00,Wunderground v.1.15,2013-03-04 07:12:00,
2013-03-03 23:18:00,38.9,33.6,30.15,ENE,64,5.0,16.0,81,0.00,,,0.00,Wunderground v.1.15,2013-03-04 07:18:00,
2013-03-03 23:23:00,39.0,33.7,30.15,ENE,64,5.0,16.0,81,0.00,,,0.00,Wunderground v.1.15,2013-03-04 07:23:00,
2013-03-03 23:28:00,38.8,33.5,30.14,ENE,64,4.0,16.0,81,0.00,,,0.00,Wunderground v.1.15,2013-03-04 07:28:00,
2013-03-03 23:33:00,38.6,33.3,30.15,ENE,61,4.0,16.0,81,0.00,,,0.00,Wunderground v.1.15,2013-03-04 07:33:00,
2013-03-03 23:39:00,38.6,33.3,30.14,NE,55,4.0,16.0,81,0.00,,,0.00,Wunderground v.1.15,2013-03-04 07:39:00,
2013-03-03 23:44:00,38.8,33.8,30.14,NE,49,4.0,16.0,82,0.00,,,0.00,Wunderground v.1.15,2013-03-04 07:44:00,
2013-03-03 23:50:00,39.1,34.1,30.14,NE,45,4.0,4.0,82,0.00,,,0.00,Wunderground v.1.15,2013-03-04 07:50:00,
2013-03-03 23:56:00,39.3,34.3,30.14,NE,46,4.0,16.0,82,0.00,,,0.00,Wunderground v.1.15,2013-03-04 07:56:00,